Flag for U.S.A. Weather past 2 weeks in Stockton, California, U.S.A.

Now
67 °F

Passing clouds.


Feels Like: 67 °F
Forecast: 46 / 65 °F
Wind: 15 mph from Northwest

Location: Stockton Metropolitan Airport

Current Time: Feb 27, 2015 at 2:23:25 PM

Latest Report: Feb 27, 2015 at 12:55 PM


Visibility: 10 mi

Pressure: 29.76 "Hg

Humidity: 44%

Dew point: 44 °F

Location of StocktonLocation

Historic Weather in Stockton — Graph

°F

Stockton temperature yesterday

Maximum temperature yesterday: 73 °F (at 2:55 PM)
Minimum temperature yesterday: 41 °F (at 4:55 AM)
Average temperature yesterday: 56 °F

Past Weeks' High & Low Weather Summary

 TemperatureHumidityPressure
High75 °F (Feb 14, 3:55 PM)100% (Feb 13, 3:02 AM)30.35 "Hg (Feb 13, 3:02 AM)
Low35 °F (Feb 24, 2:55 AM)19% (Feb 23, 3:55 PM)29.76 "Hg (Feb 27, 12:55 PM)
Average54 °F76%30.05 "Hg
* Reported Feb 12 12:55 PM — Feb 27 12:55 PM, Stockton, Weather by CustomWeather, © 2015

Note: Actual official high and low records may vary slightly from our data, if they occured in-between our weather recording intervals... More about our weather records

Advertising

Stockton weather history for previous 24 hours

 ConditionsComfort  
Time TempWeatherWind HumidityBarometerVisibility
12:55 PM
Fri, Feb 27
67 °FPassing clouds.15 mph44%29.76 "Hg10 mi
11:55 AM64 °FMostly cloudy.15 mph52%29.80 "Hg10 mi
10:55 AM63 °FBroken clouds.13 mph56%29.83 "Hg10 mi
9:55 AM62 °FPassing clouds.12 mph60%29.84 "Hg10 mi
8:55 AM59 °FSunny.13 mph69%29.84 "Hg10 mi
7:55 AM52 °FSunny.5 mph83%29.85 "Hg10 mi
6:55 AM48 °FSunny.5 mph86%29.84 "Hg10 mi
5:55 AM48 °FClear.5 mph89%29.84 "Hg10 mi
4:55 AM47 °FClear.No wind90%29.85 "Hg10 mi
3:55 AM47 °FClear.No wind90%29.84 "Hg10 mi
2:55 AM49 °FClear.No wind86%29.85 "Hg10 mi
1:55 AM51 °FClear.No wind86%29.87 "Hg10 mi
12:55 AM53 °FClear.3 mph83%29.87 "Hg10 mi
11:55 PM
Thu, Feb 26
53 °FClear.8 mph80%29.87 "Hg10 mi
10:55 PM55 °FClear.9 mph77%29.87 "Hg10 mi
9:55 PM56 °FClear.9 mph77%29.86 "Hg10 mi
8:55 PM55 °FClear.6 mph72%29.87 "Hg10 mi
7:55 PM57 °FClear.10 mph72%29.87 "Hg10 mi
6:55 PM60 °FClear.8 mph67%29.88 "Hg10 mi
5:55 PM66 °FClear.14 mph49%29.88 "Hg10 mi
4:55 PM71 °FSunny.13 mph39%29.88 "Hg10 mi
3:55 PM73 °FSunny.21 mph33%29.88 "Hg10 mi
2:55 PM73 °FSunny.17 mph33%29.90 "Hg10 mi
Weather by CustomWeather, © 2015

See weather overviewHow to use our weather pages